カタログに戻る

CZ-6A DEB

運用中SSO
NORAD 54456·DEBRIS·🇨🇳 China

打ち上げ Nov 11, 2022 から Taiyuan Satellite Launch Center

Loading…

次のパス (今後24時間)

TLE

最新Source: Space-Track

元期: Sep 14, 2026, 22:39 UTC

1 54456U 22151GG  26257.94394216  .00000900  00000-0  32586-3 0  9991
2 54456  98.9762 336.2577 0111747 232.2776 126.8237 14.32688999200022

AllMySatでCZ-6A DEBをリアルタイム追跡

Download on the App Store